Date String (YYYY-MM-DD hh:mm:ss) UTC,Instrument flags,Ambient pressure (hPa),Sample flow (lpm),Bypass flow (lpm),Sample temperature (°C),Ambient temperature (°C),ASC tube jacket temperature (°C),LED temperature (°C),Box temperature (°C),Sample RH (%),Span deviation,Mass concentration (μg/m³),Mass concentration (μg/m³),Mass concentration (μg/m³)
DateTimeUTC,F1_M11,P_M11,Q1_M11,Q2_M11,T1_M11,T2_M11,T3_M11,T4_M11,T5_M11,U1_M11,ZSPAN_M11,X2_M11,X0_M11,X1_M11
2022-07-23 13:00:00,,0825.5,5.00,0.00,29.7,28.1,00.0,38.5,31.5,19.1,0000.0,0004.44,0009.94,0003.69
2022-07-23 13:01:00,,0825.5,4.99,0.00,29.7,28.2,00.0,38.5,31.6,19.0,0000.0,0004.41,0009.81,0003.70
2022-07-23 13:02:00,,0825.5,5.00,0.00,29.7,28.3,00.0,38.5,31.6,19.0,0000.0,0004.43,0010.45,0003.71
2022-07-23 13:03:00,,0825.5,5.00,0.00,29.7,28.4,00.0,38.5,31.7,19.0,0000.0,0004.50,0010.66,0003.73
2022-07-23 13:04:00,,0825.6,5.00,0.00,29.8,28.5,00.0,38.5,31.7,19.0,0000.0,0004.53,0010.22,0003.76
2022-07-23 13:05:00,,0825.6,5.00,0.00,29.8,28.6,00.0,38.5,31.7,18.9,0000.0,0004.52,0010.10,0003.79
2022-07-23 13:06:00,,0825.6,5.01,0.00,29.8,28.7,00.0,38.5,31.8,18.9,0000.0,0004.55,0010.28,0003.82
2022-07-23 13:07:00,,0825.6,5.00,0.00,29.8,28.8,00.0,38.6,31.8,18.8,0000.0,0004.62,0010.15,0003.86
2022-07-23 13:08:00,,0825.6,4.99,0.00,29.9,28.8,00.0,38.6,31.9,18.8,0000.0,0004.68,0010.26,0003.89
2022-07-23 13:09:00,,0825.6,5.01,0.00,29.9,28.9,00.0,38.6,31.9,18.8,0000.0,0004.72,0010.22,0003.92
2022-07-23 13:10:00,,0825.6,5.00,0.00,29.9,28.9,00.0,38.6,31.9,18.7,0000.0,0004.72,0009.98,0003.95
2022-07-23 13:11:00,,0825.6,5.00,0.00,30.0,28.3,00.0,38.6,31.9,18.6,0000.0,0004.73,0010.04,0003.97
2022-07-23 13:12:00,,0825.6,4.99,0.00,29.9,27.4,00.0,38.5,31.7,18.7,0000.0,0004.72,0009.92,0004.00
2022-07-23 13:13:00,,0825.6,5.01,0.00,29.9,27.1,00.0,38.5,31.6,18.8,0000.0,0004.70,0009.32,0004.01
2022-07-23 13:14:00,,0825.6,5.00,0.00,29.8,27.2,00.0,38.5,31.4,19.0,0000.0,0004.66,0009.37,0004.02
2022-07-23 13:15:00,,0825.6,5.00,0.00,29.7,27.3,00.0,38.5,31.4,19.0,0000.0,0004.69,0009.35,0004.00
2022-07-23 13:16:00,,0825.6,5.00,0.00,29.7,27.4,00.0,38.5,31.4,19.2,0000.0,0004.70,0009.47,0003.98
2022-07-23 13:17:00,,0825.6,5.01,0.00,29.7,27.6,00.0,38.4,31.4,19.8,0000.0,0004.74,0009.39,0003.98
2022-07-23 13:18:00,,0825.6,5.00,0.00,29.6,27.8,00.0,38.4,31.5,19.5,0000.0,0004.69,0008.91,0003.97
2022-07-23 13:19:00,,0825.7,5.00,0.00,29.6,27.9,00.0,38.4,31.5,19.3,0000.0,0004.69,0008.83,0003.97
2022-07-23 13:20:00,,0825.7,5.01,0.00,29.7,28.1,00.0,38.4,31.5,19.1,0000.0,0004.71,0008.98,0003.96
2022-07-23 13:21:00,,0825.7,5.00,0.00,29.7,28.2,00.0,38.5,31.6,19.1,0000.0,0004.73,0009.06,0003.96
2022-07-23 13:22:00,,0825.7,5.00,0.00,29.7,28.3,00.0,38.5,31.6,19.5,0000.0,0004.75,0009.10,0003.95
2022-07-23 13:23:00,,0826.1,4.99,0.00,29.7,28.4,00.0,38.5,31.7,20.0,0000.0,0004.76,0009.16,0003.93
2022-07-23 13:24:00,,0826.0,5.01,0.00,29.7,28.5,00.0,38.5,31.7,19.5,0000.0,0004.74,0009.13,0003.92
2022-07-23 13:25:00,,0826.1,4.99,0.00,29.8,28.6,00.0,38.5,31.7,19.2,0000.0,0004.75,0009.30,0003.92
2022-07-23 13:26:00,,0826.0,5.00,0.00,29.8,28.7,00.0,38.5,31.8,19.3,0000.0,0004.74,0009.82,0003.94
2022-07-23 13:27:00,,0826.0,5.00,0.00,29.8,28.8,00.0,38.5,31.8,19.2,0000.0,0004.76,0009.80,0003.97
2022-07-23 13:28:00,,0825.9,4.99,0.00,29.9,28.8,00.0,38.6,31.8,19.2,0000.0,0004.77,0009.72,0003.98
2022-07-23 13:29:00,,0826.0,5.00,0.00,29.9,28.9,00.0,38.6,31.9,19.1,0000.0,0004.76,0009.66,0003.99
2022-07-23 13:30:00,,0825.8,5.00,0.00,29.9,28.8,00.0,38.6,31.9,19.0,0000.0,0004.77,0009.70,0003.99
2022-07-23 13:31:00,,0825.8,5.00,0.00,29.9,28.1,00.0,38.5,31.8,20.6,0000.0,0004.78,0009.70,0004.01
2022-07-23 13:32:00,,0825.7,5.01,0.00,29.9,27.3,00.0,38.5,31.7,19.9,0000.0,0004.80,0009.67,0004.01
2022-07-23 13:33:00,,0825.8,5.00,0.00,29.8,27.2,00.0,38.5,31.6,21.3,0000.0,0004.78,0009.57,0004.02
2022-07-23 13:34:00,,0825.7,5.00,0.00,29.8,27.2,00.0,38.5,31.5,21.1,0000.0,0004.79,0009.63,0004.03
2022-07-23 13:35:00,,0825.9,5.00,0.00,29.7,27.4,00.0,38.5,31.4,20.9,0000.0,0004.83,0009.94,0004.05
2022-07-23 13:36:00,,0825.8,4.99,0.00,29.7,27.5,00.0,38.5,31.4,20.4,0000.0,0004.82,0010.04,0004.05
2022-07-23 13:37:00,,0825.8,5.02,0.00,29.7,27.7,00.0,38.5,31.5,19.9,0000.0,0004.76,0009.11,0004.04
2022-07-23 13:38:00,,0825.9,5.00,0.00,29.7,27.9,00.0,38.5,31.5,20.1,0000.0,0004.75,0009.17,0004.03
2022-07-23 13:39:00,,0825.9,4.99,0.00,29.7,28.0,00.0,38.5,31.5,20.2,0000.0,0004.74,0009.36,0004.02
2022-07-23 13:40:00,,0825.9,5.00,0.00,29.7,28.2,00.0,38.5,31.6,20.5,0000.0,0004.76,0009.92,0004.03
2022-07-23 13:41:00,,0826.0,5.00,0.00,29.7,28.3,00.0,38.5,31.6,20.9,0000.0,0004.78,0010.51,0004.03
2022-07-23 13:42:00,,0826.0,4.99,0.00,29.7,28.4,00.0,38.5,31.7,21.1,0000.0,0004.80,0011.35,0004.03
2022-07-23 13:43:00,,0826.0,5.00,0.00,29.7,28.5,00.0,38.5,31.7,20.9,0000.0,0004.77,0012.10,0004.03
2022-07-23 13:44:00,,0826.0,4.99,0.00,29.8,28.6,00.0,38.5,31.7,21.1,0000.0,0004.79,0012.25,0004.03
2022-07-23 13:45:00,,0826.0,5.00,0.00,29.8,28.7,00.0,38.5,31.7,21.0,0000.0,0004.79,0012.11,0004.05
2022-07-23 13:46:00,,0826.0,5.01,0.00,29.8,28.8,00.0,38.5,31.8,21.0,0000.0,0004.83,0012.05,0004.06
2022-07-23 13:47:00,,0826.0,4.99,0.00,29.9,28.8,00.0,38.6,31.9,20.8,0000.0,0004.89,0011.98,0004.08
2022-07-23 13:48:00,,0826.0,5.00,0.00,29.9,28.9,00.0,38.6,31.9,21.0,0000.0,0005.02,0012.68,0004.11
2022-07-23 13:49:00,,0826.0,5.00,0.00,29.9,28.9,00.0,38.6,31.9,20.7,0000.0,0005.09,0012.76,0004.13
2022-07-23 13:50:00,,0826.0,5.00,0.00,30.0,28.3,00.0,38.6,31.9,20.6,0000.0,0005.18,0013.45,0004.15
2022-07-23 13:51:00,,0825.9,5.00,0.00,29.9,27.5,00.0,38.5,31.7,21.0,0000.0,0005.24,0013.30,0004.17
2022-07-23 13:52:00,,0826.0,5.00,0.00,29.9,27.3,00.0,38.5,31.6,21.4,0000.0,0005.26,0012.74,0004.19
2022-07-23 13:53:00,,0825.9,4.99,0.00,29.8,27.4,00.0,38.5,31.5,21.5,0000.0,0005.28,0012.14,0004.20
2022-07-23 13:54:00,,0825.9,5.01,0.00,29.7,27.5,00.0,38.5,31.5,21.3,0000.0,0005.43,0013.23,0004.24
2022-07-23 13:55:00,,0826.0,5.00,0.00,29.7,27.6,00.0,38.5,31.5,21.2,0000.0,0005.50,0013.96,0004.26
2022-07-23 13:56:00,,0826.0,5.00,0.00,29.7,27.8,00.0,38.5,31.5,21.2,0000.0,0005.58,0014.17,0004.27
2022-07-23 13:57:00,,0826.0,5.01,0.00,29.7,27.9,00.0,38.5,31.5,21.1,0000.0,0005.63,0014.48,0004.28
2022-07-23 13:58:00,,0826.0,5.00,0.00,29.7,28.1,00.0,38.5,31.6,20.5,0000.0,0005.66,0015.03,0004.29
2022-07-23 13:59:00,,0826.0,5.00,0.00,29.7,28.2,00.0,38.5,31.6,20.7,0000.0,0005.64,0015.22,0004.29
